This is the latest recevied weather packets stored in our database for station/object DPX206-15. If no packets are shown the sender has not sent any weather packets the latest 1 day(s).
| Time | Temp. | Humidity | Pressure | Rain* | Wind** | Luminosity | Snow |
|---|---|---|---|---|---|---|---|
| 1836274760 | 20° C | 60% | 1019 hPa | 0 mm | 1.34 m/s, 223° | 0 W/m² | - |
| 1836274510 | 20° C | 61% | 1019 hPa | 0 mm | 0.89 m/s, 189° | 0 W/m² | - |
| 1836274510 | 20° C | 60% | 1019.1 hPa | 0 mm | 1.34 m/s, 211° | 0 W/m² | - |
| 1836274260 | 20° C | 60% | 1019.2 hPa | 0 mm | 1.34 m/s, 226° | 0 W/m² | - |
| 1836274260 | 20° C | 60% | 1019.1 hPa | 0 mm | 1.34 m/s, 209° | 0 W/m² | - |
| 1836274010 | 20° C | 60% | 1019.1 hPa | 0 mm | 1.34 m/s, 202° | 0 W/m² | - |
| 1778019410 | 10.56° C | 94% | 1008.4 hPa | 1.78 mm | 1.34 m/s, 80° | 0 W/m² | - |
| 1778018660 | 11.11° C | 94% | 1008.7 hPa | 1.52 mm | 0.89 m/s, 66° | 0 W/m² | - |
| 1778017910 | 11.11° C | 94% | 1008.5 hPa | 1.52 mm | 0.89 m/s, 87° | 0 W/m² | - |
| 1778017159 | 11.11° C | 94% | 1008.9 hPa | 1.27 mm | 1.34 m/s, 73° | 0 W/m² | - |
| 1778016409 | 11.11° C | 94% | 1009 hPa | 1.27 mm | 1.34 m/s, 90° | 0 W/m² | - |
| 1778015659 | 11.11° C | 94% | 1008.9 hPa | 1.02 mm | 1.34 m/s, 86° | 0 W/m² | - |
| 1778014909 | 11.11° C | 94% | 1008.7 hPa | 1.02 mm | 0.89 m/s, 81° | 0 W/m² | - |
| 1778014158 | 11.11° C | 94% | 1008.9 hPa | 0.76 mm | 0.89 m/s, 71° | 0 W/m² | - |
| 1778013408 | 11.11° C | 94% | 1009 hPa | 0.76 mm | 1.34 m/s, 77° | 0 W/m² | - |
| 1778012658 | 11.11° C | 94% | 1009.1 hPa | 0.51 mm | 0.89 m/s, 79° | 0 W/m² | - |
| 1778011908 | 11.67° C | 93% | 1009 hPa | 0.76 mm | 0.89 m/s, 85° | 0 W/m² | - |
| 1778011158 | 11.67° C | 93% | 1009 hPa | 0.51 mm | 0.89 m/s, 81° | 0 W/m² | - |
| 1778010407 | 11.67° C | 93% | 1008.9 hPa | 0.76 mm | 0.89 m/s, 90° | 0 W/m² | - |
| 1778009657 | 11.67° C | 93% | 1009.1 hPa | 0.51 mm | 0.89 m/s, 80° | 0 W/m² | - |
| 1778008907 | 11.67° C | 93% | 1009 hPa | 0.25 mm | 1.34 m/s, 89° | 0 W/m² | - |
| 1778008157 | 11.67° C | 92% | 1009.1 hPa | 0.25 mm | 0.89 m/s, 81° | 0 W/m² | - |
| 1778007407 | 11.67° C | 92% | 1008.9 hPa | 0 mm | 0.45 m/s, 57° | 0 W/m² | - |
| 1778006656 | 11.67° C | 92% | 1009.2 hPa | 0 mm | 1.34 m/s, 79° | 0 W/m² | - |
| 1778005906 | 12.22° C | 92% | 1009.2 hPa | 0 mm | 1.79 m/s, 86° | 0 W/m² | - |
* Rain latest hour (hover to see other rain measurements)
** Current wind speed in m/s (hover to see current wind gust speed)